When you browse on this site, cookies collect data to enhance your experience and personalize the content and advertising you see.
Visit our Privacy Policy to learn more. By continuing to use the site, you agree to this use of cookies and data.
  • In Spain
  • List of Countries
  • For 7 days
  • Water Temperature
  • Satellite Maps
  • Weather Map
  • Weather Widgets
  • user-avatar
    Login

    Hourly Weather Lubango

    Today, 12 December, Wednesday

    Time Temperature Precipitation Wind Pressure Humidity
    00:00 +14°C° 0 mm 1 mps 609 mmHg 72%
    01:00 +14°C° 0 mm 1 mps 609 mmHg 75%
    02:00 +13°C° 0 mm 0 mps 609 mmHg 75%
    03:00 +13°C° 0 mm 0 mps 609 mmHg 75%
    04:00 +13°C° 0 mm 0 mps 608 mmHg 75%
    05:00 +14°C° 0 mm 0 mps 609 mmHg 67%
    06:00 +16°C° 0 mm 0 mps 610 mmHg 60%
    07:00 +18°C° 0 mm 0 mps 611 mmHg 52%
    08:00 +22°C° 0 mm 1 mps 612 mmHg 43%
    09:00 +25°C° 0 mm 1 mps 613 mmHg 34%
    10:00 +27°C° 0 mm 1 mps 614 mmHg 26%
    11:00 +29°C° 0 mm 2 mps 614 mmHg 23%
    12:00 +30°C° 0 mm 2 mps 614 mmHg 21%
    13:00 +30°C° 0 mm 2 mps 614 mmHg 20%
    14:00 +30°C° 0 mm 3 mps 613 mmHg 21%
    15:00 +29°C° 0 mm 3 mps 612 mmHg 22%
    16:00 +29°C° 0 mm 3 mps 612 mmHg 23%
    17:00 +27°C° 0 mm 3 mps 611 mmHg 29%
    18:00 +24°C° 0 mm 3 mps 610 mmHg 36%
    19:00 +20°C° 0 mm 2 mps 610 mmHg 42%
    20:00 +19°C° 0 mm 2 mps 610 mmHg 48%
    21:00 +18°C° 0 mm 1 mps 610 mmHg 54%
    22:00 +16°C° 0 mm 1 mps 610 mmHg 59%
    23:00 +15°C° 0 mm 1 mps 609 mmHg 61%

    Tomorrow, 13 December, Thursday

    Time Temperature Precipitation Wind Pressure Humidity
    00:00 +15°C° 0 mm 1 mps 609 mmHg 63%
    01:00 +14°C° 0 mm 1 mps 609 mmHg 65%
    02:00 +14°C° 0 mm 1 mps 609 mmHg 64%
    03:00 +14°C° 0 mm 1 mps 609 mmHg 64%
    04:00 +13°C° 0 mm 1 mps 608 mmHg 63%
    05:00 +15°C° 0 mm 1 mps 609 mmHg 57%
    06:00 +16°C° 0 mm 1 mps 610 mmHg 50%
    07:00 +19°C° 0 mm 1 mps 611 mmHg 44%
    08:00 +22°C° 0 mm 1 mps 612 mmHg 35%
    09:00 +25°C° 0 mm 2 mps 614 mmHg 26%
    10:00 +29°C° 0 mm 2 mps 615 mmHg 18%
    11:00 +30°C° 0 mm 3 mps 615 mmHg 16%
    12:00 +31°C° 0 mm 3 mps 614 mmHg 15%
    13:00 +33°C° 0 mm 3 mps 614 mmHg 13%
    14:00 +32°C° 0 mm 4 mps 613 mmHg 15%
    15:00 +30°C° 0 mm 4 mps 613 mmHg 17%
    16:00 +29°C° 0 mm 5 mps 612 mmHg 18%
    17:00 +26°C° 0 mm 4 mps 611 mmHg 24%
    18:00 +22°C° 0 mm 3 mps 610 mmHg 30%
    19:00 +19°C° 0 mm 2 mps 610 mmHg 36%
    20:00 +18°C° 0 mm 2 mps 610 mmHg 39%
    21:00 +18°C° 0 mm 1 mps 610 mmHg 42%
    22:00 +16°C° 0 mm 1 mps 610 mmHg 44%
    23:00 +16°C° 0 mm 1 mps 610 mmHg 45%

    Day after tomorrow, 14 December, Friday

    Time Temperature Precipitation Wind Pressure Humidity
    00:00 +15°C° 0 mm 1 mps 610 mmHg 46%
    01:00 +15°C° 0 mm 1 mps 610 mmHg 46%
    02:00 +15°C° 0 mm 1 mps 610 mmHg 45%
    03:00 +16°C° 0 mm 1 mps 610 mmHg 43%
    04:00 +16°C° 0 mm 1 mps 609 mmHg 41%
    05:00 +18°C° 0 mm 1 mps 610 mmHg 40%
    06:00 +19°C° 0 mm 1 mps 611 mmHg 39%
    07:00 +20°C° 0 mm 1 mps 612 mmHg 37%
    08:00 +21°C° 0 mm 2 mps 613 mmHg 32%
    09:00 +25°C° 0 mm 2 mps 614 mmHg 27%
    10:00 +27°C° 0 mm 3 mps 615 mmHg 22%
    11:00 +28°C° 0 mm 3 mps 614 mmHg 22%
    12:00 +29°C° 0 mm 3 mps 614 mmHg 21%
    13:00 +30°C° 0 mm 4 mps 613 mmHg 21%
    14:00 +29°C° 0 mm 3 mps 612 mmHg 24%
    15:00 +27°C° 0 mm 3 mps 612 mmHg 28%
    16:00 +26°C° 0 mm 3 mps 611 mmHg 31%
    17:00 +24°C° 0 mm 3 mps 611 mmHg 37%
    18:00 +21°C° 0 mm 2 mps 610 mmHg 42%
    19:00 +19°C° 0 mm 2 mps 610 mmHg 47%
    20:00 +18°C° 0 mm 2 mps 610 mmHg 53%
    21:00 +16°C° 0 mm 1 mps 610 mmHg 58%
    22:00 +15°C° 0 mm 1 mps 610 mmHg 63%
    23:00 +15°C° 0 mm 1 mps 610 mmHg 63%

    15 December, Saturday

    Time Temperature Precipitation Wind Pressure Humidity
    00:00 +15°C° 0 mm 1 mps 609 mmHg 64%
    01:00 +15°C° 0 mm 1 mps 609 mmHg 64%
    02:00 +15°C° 0 mm 1 mps 609 mmHg 65%
    03:00 +15°C° 0 mm 1 mps 609 mmHg 66%
    04:00 +15°C° 0 mm 1 mps 609 mmHg 66%
    05:00 +15°C° 0 mm 1 mps 609 mmHg 63%
    06:00 +16°C° 0 mm 1 mps 610 mmHg 59%
    07:00 +18°C° 0 mm 1 mps 611 mmHg 55%
    08:00 +21°C° 0 mm 1 mps 612 mmHg 45%
    09:00 +24°C° 0 mm 1 mps 613 mmHg 35%
    10:00 +27°C° 0 mm 2 mps 614 mmHg 25%
    11:00 +28°C° 0 mm 2 mps 614 mmHg 23%
    12:00 +30°C° 0 mm 2 mps 614 mmHg 22%
    13:00 +31°C° 0 mm 3 mps 613 mmHg 20%
    14:00 +30°C° 0 mm 3 mps 612 mmHg 23%
    15:00 +29°C° 0 mm 4 mps 612 mmHg 26%
    16:00 +28°C° 0 mm 4 mps 611 mmHg 29%
    17:00 +25°C° 0 mm 4 mps 610 mmHg 38%
    18:00 +21°C° 0 mm 3 mps 610 mmHg 46%
    19:00 +19°C° 0 mm 3 mps 610 mmHg 55%
    20:00 +18°C° 0 mm 2 mps 610 mmHg 59%
    21:00 +17°C° 0 mm 2 mps 610 mmHg 63%
    22:00 +16°C° 0 mm 2 mps 610 mmHg 68%
    23:00 +15°C° 0 mm 1 mps 610 mmHg 69%

    16 December, Sunday

    Time Temperature Precipitation Wind Pressure Humidity
    00:00 +15°C° 0 mm 1 mps 609 mmHg 70%
    01:00 +14°C° 0 mm 1 mps 609 mmHg 71%
    02:00 +14°C° 0 mm 1 mps 609 mmHg 68%
    03:00 +14°C° 0 mm 1 mps 609 mmHg 65%
    04:00 +15°C° 0 mm 1 mps 608 mmHg 62%
    05:00 +16°C° 0 mm 1 mps 609 mmHg 57%
    06:00 +18°C° 0 mm 1 mps 610 mmHg 51%
    07:00 +19°C° 0 mm 1 mps 611 mmHg 46%
    08:00 +21°C° 0 mm 2 mps 612 mmHg 39%
    09:00 +24°C° 0 mm 2 mps 612 mmHg 33%
    10:00 +27°C° 0 mm 2 mps 613 mmHg 26%
    11:00 +28°C° 0 mm 3 mps 613 mmHg 25%
    12:00 +29°C° 0 mm 3 mps 613 mmHg 23%
    13:00 +31°C° 0 mm 3 mps 613 mmHg 21%
    14:00 +29°C° 0 mm 4 mps 612 mmHg 24%
    15:00 +28°C° 0 mm 4 mps 611 mmHg 27%
    16:00 +27°C° 0 mm 4 mps 611 mmHg 29%
    17:00 +25°C° 0 mm 4 mps 610 mmHg 36%
    18:00 +22°C° 0 mm 3 mps 610 mmHg 43%
    19:00 +19°C° 0 mm 3 mps 610 mmHg 50%
    20:00 +18°C° 0 mm 2 mps 610 mmHg 56%
    21:00 +17°C° 0 mm 2 mps 610 mmHg 62%
    22:00 +15°C° 0 mm 1 mps 610 mmHg 68%
    23:00 +15°C° 0 mm 1 mps 609 mmHg 71%

    17 December, Monday

    Time Temperature Precipitation Wind Pressure Humidity
    00:00 +14°C° 0 mm 1 mps 609 mmHg 74%
    01:00 +14°C° 0 mm 1 mps 608 mmHg 77%
    02:00 +14°C° 0 mm 1 mps 608 mmHg 78%
    03:00 +13°C° 0 mm 1 mps 608 mmHg 80%
    04:00 +13°C° 0 mm 1 mps 608 mmHg 81%
    05:00 +14°C° 0 mm 1 mps 609 mmHg 75%
    06:00 +16°C° 0 mm 1 mps 610 mmHg 68%
    07:00 +18°C° 0 mm 1 mps 611 mmHg 61%
    08:00 +21°C° 0 mm 1 mps 612 mmHg 52%
    09:00 +24°C° 0 mm 2 mps 613 mmHg 43%
    10:00 +26°C° 0 mm 2 mps 613 mmHg 34%
    11:00 +27°C° 0 mm 2 mps 613 mmHg 33%
    12:00 +27°C° 0 mm 3 mps 612 mmHg 32%
    13:00 +28°C° 0 mm 3 mps 612 mmHg 31%
    14:00 +28°C° 0 mm 3 mps 612 mmHg 32%
    15:00 +27°C° 0 mm 3 mps 611 mmHg 33%
    16:00 +27°C° 0 mm 4 mps 611 mmHg 35%
    17:00 +25°C° 0 mm 3 mps 610 mmHg 43%
    18:00 +22°C° 0 mm 3 mps 610 mmHg 51%
    19:00 +19°C° 0 mm 2 mps 610 mmHg 59%
    20:00 +18°C° 0 mm 2 mps 609 mmHg 65%
    21:00 +17°C° 0 mm 2 mps 609 mmHg 71%
    22:00 +15°C° 0 mm 1 mps 609 mmHg 77%
    23:00 +15°C° 0 mm 1 mps 609 mmHg 80%
    Show more